This is the latest recevied weather packets stored in our database for station/object KB5DPX. If no packets are shown the sender has not sent any weather packets the latest 1 day(s).
| Time | Temp. | Humidity | Pressure | Rain* | Wind** | Luminosity | Snow |
|---|---|---|---|---|---|---|---|
| 1778017065 | 10.56° C | 47% | 1007.5 hPa | 0 mm | 5.36 m/s, 246° | 529 W/m² | - |
| 1778016769 | 11.11° C | 44% | 1007.5 hPa | 0 mm | 5.81 m/s, 223° | 547 W/m² | - |
| 1778016464 | 11.11° C | 46% | 1007.4 hPa | 0 mm | 4.92 m/s, 279° | 563 W/m² | - |
| 1778016151 | 10.56° C | 45% | 1007.5 hPa | 0 mm | 5.36 m/s, 257° | 578 W/m² | - |
| 1778015868 | 11.11° C | 45% | 1007.5 hPa | 0 mm | 6.71 m/s, 288° | 598 W/m² | - |
| 1778015556 | 11.11° C | 45% | 1007.6 hPa | 0 mm | 4.92 m/s, 238° | 608 W/m² | - |
| 1778015243 | 11.11° C | 47% | 1007.6 hPa | 0 mm | 4.47 m/s, 252° | 622 W/m² | - |
| 1778014958 | 11.11° C | 47% | 1007.6 hPa | 0 mm | 5.81 m/s, 255° | 633 W/m² | - |
| 1778014654 | 10.56° C | 45% | 1007.5 hPa | 0 mm | 5.36 m/s, 253° | 647 W/m² | - |
| 1778014361 | 10.56° C | 44% | 1007.5 hPa | 0 mm | 4.92 m/s, 253° | 666 W/m² | - |
| 1778014068 | 10.56° C | 45% | 1007.6 hPa | 0 mm | 6.71 m/s, 263° | 677 W/m² | - |
| 1778013756 | 10.56° C | 46% | 1007.5 hPa | 0 mm | 6.26 m/s, 256° | 698 W/m² | - |
| 1778013442 | 10.56° C | 44% | 1007.5 hPa | 0 mm | 5.81 m/s, 249° | 684 W/m² | - |
| 1778013158 | 10.56° C | 45% | 1007.4 hPa | 0 mm | 4.92 m/s, 249° | 686 W/m² | - |
| 1778012857 | 10.56° C | 46% | 1007.4 hPa | 0 mm | 6.26 m/s, 279° | 712 W/m² | - |
| 1778012546 | 10.56° C | 48% | 1007.3 hPa | 0 mm | 5.36 m/s, 240° | 728 W/m² | - |
| 1778012255 | 10.56° C | 45% | 1007.3 hPa | 0 mm | 8.05 m/s, 244° | 754 W/m² | - |
| 1778011942 | 10.56° C | 47% | 1007.4 hPa | 0 mm | 6.26 m/s, 250° | 779 W/m² | - |
| 1778011658 | 10.56° C | 46% | 1007.4 hPa | 0 mm | 6.26 m/s, 280° | 786 W/m² | - |
| 1778011344 | 10.56° C | 47% | 1007.3 hPa | 0 mm | 6.71 m/s, 265° | 802 W/m² | - |
| 1778011046 | 10.56° C | 47% | 1007.3 hPa | 0 mm | 5.36 m/s, 234° | 766 W/m² | - |
| 1778010759 | 10° C | 45% | 1007.3 hPa | 0 mm | 5.81 m/s, 257° | 765 W/m² | - |
| 1778010445 | 10.56° C | 47% | 1007.4 hPa | 0 mm | 7.15 m/s, 227° | 835 W/m² | - |
| 1778010160 | 10.56° C | 46% | 1007.4 hPa | 0 mm | 6.26 m/s, 257° | 788 W/m² | - |
| 1778009842 | 10.56° C | 49% | 1007.3 hPa | 0 mm | 6.26 m/s, 211° | 860 W/m² | - |
* Rain latest hour (hover to see other rain measurements)
** Current wind speed in m/s (hover to see current wind gust speed)